GFSNW_sfc_thetae_069.txt.gz
Theta_e
305 305 302 301 300 302 297 289 280 297 305 293 289 287 290 296 295 297 297 295 292 288 288 286 285 286 288 292 290 287 289 286 280 283 286 287 286 285 285 280 277 278 278 279
305 305 304 302 300 302 293 286 285 297 300 286 286 291 293 295 294 295 295 294 296 295 289 286 287 288 292 292 291 289 290 283 277 281 284 285 284 285 286 284 282 279 276 279
304 305 305 303 302 303 293 285 282 286 293 292 289 290 290 290 296 295 297 295 296 294 292 294 290 290 293 294 294 297 294 285 283 281 282 285 283 284 285 285 279 281 281 282
303 304 305 304 303 302 295 284 282 284 279 286 287 290 291 289 288 294 295 292 293 293 290 291 291 292 292 294 295 294 292 282 285 285 288 287 285 285 286 283 285 281 284 283
302 303 304 304 304 303 291 282 280 284 282 283 287 287 286 288 289 291 289 289 292 294 289 291 290 292 292 291 293 292 292 283 286 284 287 287 284 287 287 285 285 286 285 286
301 301 302 304 304 300 291 289 287 284 282 281 284 285 284 286 290 290 292 292 290 290 291 294 294 297 295 295 292 291 290 286 282 281 285 286 282 285 286 286 288 288 285 289
300 301 301 302 303 302 290 288 286 278 273 280 282 283 285 284 287 286 288 291 290 289 292 290 290 288 290 291 291 293 288 286 284 279 282 276 282 285 290 288 289 291 290 290
299 300 300 301 302 303 293 289 286 278 268 280 281 282 283 284 285 283 285 286 287 292 288 283 281 277 284 284 284 290 292 287 281 278 278 279 281 283 285 285 284 290 290 286
297 298 299 300 301 302 299 290 289 283 276 276 284 281 282 276 276 276 278 282 284 286 281 277 268 272 274 274 280 285 289 290 284 276 276 270 278 283 285 284 277 285 286 285
297 297 298 299 300 301 298 294 291 287 275 281 283 278 279 282 279 276 274 278 283 283 275 268 267 268 275 271 272 278 282 283 281 273 273 275 280 283 283 273 276 280 286 286
296 297 297 298 299 299 298 292 296 290 281 280 284 285 281 279 279 277 277 280 279 277 277 273 269 267 272 268 272 276 281 279 277 277 274 272 282 282 279 281 283 283 284 284
295 296 297 297 298 298 299 290 295 296 287 285 286 287 288 289 287 282 275 278 277 282 276 272 272 267 266 265 266 277 273 277 274 277 278 282 282 282 284 285 284 283 284 284
295 296 296 297 297 297 297 290 293 292 284 284 283 282 287 289 289 290 281 278 282 280 281 274 270 270 273 267 268 269 275 275 273 274 274 279 283 286 286 286 285 285 284 284
294 295 296 296 297 297 297 288 293 289 285 280 280 284 284 288 289 288 288 285 284 282 279 274 270 269 278 271 275 274 276 277 271 271 275 276 278 281 284 283 282 282 283 282
293 294 295 296 296 296 294 293 293 292 287 278 277 278 283 286 288 286 286 286 282 277 274 270 271 273 275 272 275 272 278 277 275 273 279 279 280 283 283 281 283 283 282 281
293 294 295 295 296 296 289 282 290 293 292 282 274 280 276 280 285 285 284 284 279 277 276 271 272 279 275 266 265 277 279 280 281 279 281 281 282 282 282 281 281 281 280 281
292 293 294 295 295 291 285 281 282 293 291 281 276 275 279 281 282 280 283 282 280 278 272 270 276 276 274 265 267 278 279 280 280 280 280 278 279 279 279 280 279 276 274 275
292 293 294 295 295 293 286 290 293 293 285 283 275 274 276 283 281 281 284 282 282 280 276 270 273 275 270 268 278 280 278 278 278 279 279 278 277 276 276 273 271 269 270 271
292 292 294 292 288 283 280 294 294 291 281 275 275 272 271 283 281 281 281 283 277 279 275 275 278 272 273 276 279 279 276 277 277 274 269 269 270 272 270 267 265 265 267 266
292 289 285 281 283 291 291 286 281 282 281 279 273 268 273 281 276 275 275 279 275 272 275 278 275 269 279 277 276 274 276 276 270 268 266 261 263 266 264 262 262 263 263 262
286 282 278 283 293 284 280 275 275 275 272 273 272 275 273 277 273 271 276 274 275 270 272 273 269 264 277 277 267 269 269 268 262 262 261 260 260 260 258 257 255 255 255 256
285 283 284 284 279 276 273 271 271 269 270 272 272 273 279 277 277 275 275 273 273 268 272 269 265 272 273 270 265 262 262 261 257 255 256 255 257 255 253 251 250 250 252 253
284 280 276 275 274 269 267 266 264 267 262 271 271 271 277 278 279 273 274 269 268 270 269 266 265 267 260 260 257 254 252 251 251 250 251 250 249 248 248 248 249 247 247 249
274 273 269 269 268 268 265 264 265 267 270 268 275 272 276 277 274 274 269 270 270 268 266 262 264 263 256 254 253 253 251 251 251 249 248 248 247 247 245 245 245 245 246 248
268 269 265 265 260 253 251 252 258 259 262 276 272 268 276 273 271 272 267 264 265 267 263 263 260 253 254 252 250 250 250 249 248 245 245 246 245 245 245 245 244 243 244 246
259 256 260 256 255 251 250 251 253 257 261 275 274 270 270 270 270 267 266 264 260 264 261 252 252 252 252 251 251 250 248 247 245 244 244 245 244 245 245 243 243 244 244 246
250 246 243 244 247 250 250 252 257 260 267 273 272 269 269 269 267 266 266 261 259 246 245 248 252 252 250 250 249 247 246 245 243 242 242 243 242 241 243 246 245 244 245 245

GFSNW_sfc_thetae_072.txt.gz
Theta_e
305 305 303 301 300 302 297 289 281 296 304 290 286 286 290 295 294 296 295 293 290 287 287 285 285 285 287 291 291 287 288 286 281 283 286 286 285 284 283 278 276 276 277 277
305 305 305 302 300 301 292 286 285 296 300 285 285 290 292 294 294 294 294 293 294 292 288 285 286 287 291 291 291 289 289 283 275 280 284 284 282 284 283 283 282 277 275 277
304 304 305 304 302 302 292 284 281 287 292 292 289 289 290 290 296 296 297 295 295 293 291 293 287 288 291 293 291 296 293 284 281 279 280 284 282 284 284 285 279 280 280 281
303 303 305 305 303 303 293 283 281 284 281 285 288 292 291 289 289 295 296 292 294 293 289 290 289 291 291 293 295 293 290 282 284 285 285 285 284 284 283 283 285 282 283 283
302 303 303 304 303 303 290 281 280 283 282 283 287 288 288 288 290 291 289 289 293 293 291 291 289 291 291 291 292 292 291 283 284 282 286 286 285 285 285 285 285 283 284 284
300 302 303 304 304 301 290 287 287 283 282 281 285 286 287 289 291 292 293 292 291 290 293 294 295 296 295 294 292 291 290 285 280 276 284 284 280 284 285 285 286 286 284 288
299 300 302 302 304 301 290 288 285 279 272 280 282 284 287 286 288 288 289 294 291 292 293 294 293 292 293 293 292 294 289 286 285 279 284 278 284 284 288 288 288 290 289 289
298 299 300 301 302 303 294 289 286 279 268 281 281 282 284 285 285 285 286 287 287 294 290 286 284 283 286 284 285 290 293 288 281 279 279 281 282 283 285 286 285 290 290 288
297 298 299 300 301 302 298 294 288 284 275 276 284 281 283 279 277 278 281 283 286 287 285 282 278 278 281 280 282 286 290 290 285 277 276 271 280 283 287 285 278 285 290 286
296 297 298 299 300 300 298 294 293 287 276 281 283 278 280 283 279 278 275 279 283 284 278 275 275 275 277 277 279 282 284 284 280 279 276 276 281 282 283 276 279 280 285 285
296 296 297 298 298 299 297 293 296 289 280 280 283 285 282 280 280 278 278 281 281 278 276 276 272 271 274 274 275 280 283 281 281 278 276 275 282 281 280 281 282 283 283 284
295 296 296 297 297 298 298 290 296 296 286 285 285 286 287 288 287 283 277 279 278 283 278 273 272 268 268 268 269 277 277 281 277 280 280 281 281 282 283 284 283 283 284 283
294 295 296 296 297 297 297 290 293 292 284 285 285 282 286 288 289 289 282 278 282 281 281 276 272 272 274 267 268 270 275 275 276 277 275 278 282 284 284 285 284 284 283 283
294 294 294 295 296 297 297 291 293 290 285 281 279 284 284 287 289 287 288 285 283 282 279 273 270 271 278 272 275 273 276 277 271 270 274 277 279 281 284 283 283 283 283 283
293 293 294 295 296 296 295 292 293 293 286 277 272 278 282 284 286 286 286 285 282 277 276 275 272 274 274 272 275 273 278 276 276 274 280 282 283 284 282 281 282 282 282 281
292 292 293 294 295 296 290 283 291 294 291 281 273 279 276 280 284 284 284 284 280 278 277 273 274 279 276 267 266 277 279 280 281 279 282 281 283 284 282 282 281 281 281 281
292 292 293 294 295 292 285 282 284 294 291 281 272 272 277 280 280 276 277 278 276 277 274 273 276 276 275 266 268 277 279 280 281 281 280 278 279 280 281 282 281 276 274 274
292 292 292 293 294 293 287 290 293 294 285 283 274 270 274 281 281 279 279 278 280 277 275 271 276 275 272 269 279 279 279 279 278 279 280 280 279 278 277 275 272 269 270 270
292 292 292 289 288 284 284 294 295 290 282 277 274 267 271 282 281 281 281 281 278 279 277 275 276 272 272 277 279 278 277 277 277 275 272 271 273 274 273 270 266 268 268 266
292 287 280 279 284 292 293 286 282 282 281 276 271 270 270 280 275 276 275 278 276 273 276 278 276 273 280 279 276 276 276 277 274 270 269 264 264 269 268 265 263 264 263 262
285 280 276 279 293 284 280 276 275 276 273 272 266 270 272 280 272 270 276 275 276 271 271 275 272 269 279 281 271 274 275 274 271 271 268 266 267 267 262 258 256 256 255 255
283 280 284 284 280 277 273 272 270 268 268 270 269 268 271 272 277 275 276 271 272 269 275 273 267 275 280 275 272 268 268 268 261 259 260 258 259 258 257 255 253 251 251 251
282 276 277 276 275 269 268 266 265 268 265 272 266 267 271 276 278 276 270 271 269 272 269 266 267 267 265 266 262 258 255 256 254 253 254 254 251 250 251 250 248 247 246 246
276 272 269 269 268 269 267 266 263 265 266 267 272 266 270 270 272 273 270 271 270 267 266 264 265 268 268 263 257 258 255 255 254 252 252 251 251 249 245 246 245 246 245 247
270 271 267 268 262 252 247 248 261 259 265 272 267 266 271 266 270 272 268 263 264 267 265 265 267 258 256 255 253 253 254 253 251 249 250 249 248 248 246 243 242 244 242 243
260 256 260 256 259 256 251 248 252 253 259 266 266 261 263 262 269 267 265 265 264 264 262 255 251 250 250 250 251 251 251 251 249 248 247 247 247 247 246 241 241 242 243 244
253 247 243 246 248 250 247 246 252 257 263 264 262 264 262 264 263 266 268 262 262 249 247 246 247 248 247 249 249 248 249 249 248 245 244 244 241 240 243 246 244 242 242 242

GFSNW_sfc_thetae_075.txt.gz
Theta_e
304 305 304 301 300 302 297 289 284 296 303 288 286 289 292 295 293 295 295 292 289 286 286 285 285 285 287 291 291 286 288 286 281 283 286 286 284 284 284 279 276 275 276 278
304 304 305 303 300 301 292 286 286 296 300 283 284 287 292 293 292 293 294 292 292 290 287 284 286 287 290 291 291 289 289 284 278 282 285 285 283 283 283 282 282 277 276 278
302 304 304 304 302 302 292 285 282 287 292 291 288 286 288 290 295 294 295 294 295 291 288 291 286 287 291 291 290 295 293 284 282 280 281 284 282 283 283 284 280 279 279 281
301 303 304 305 303 303 292 285 282 284 282 285 288 291 290 288 289 295 296 292 292 291 287 288 287 289 289 291 295 291 290 282 282 283 283 283 283 283 283 283 285 281 282 283
300 301 303 304 304 303 289 283 282 284 282 283 287 289 288 288 290 292 290 289 292 292 290 290 288 289 289 289 290 289 289 280 284 281 285 285 283 284 285 286 283 282 281 283
299 300 302 303 304 300 287 285 286 284 283 282 286 286 288 289 291 293 294 293 291 291 292 294 295 295 295 294 291 289 287 283 278 274 283 284 278 284 284 285 285 286 283 287
298 299 300 302 303 300 291 289 286 279 274 281 283 284 288 288 290 288 291 294 290 293 295 296 295 292 292 292 292 293 287 285 283 280 281 275 284 284 288 288 288 288 288 289
297 298 299 300 302 303 293 289 286 279 270 281 281 282 284 286 287 286 287 288 290 294 292 286 285 284 285 285 287 291 292 288 282 280 281 281 282 283 285 286 286 290 289 288
296 297 298 299 300 301 297 292 288 284 275 276 284 281 283 279 281 282 283 285 287 289 287 284 280 279 283 281 281 286 291 290 287 280 278 277 282 284 288 287 280 287 291 288
296 296 297 298 299 300 298 294 294 287 277 281 283 278 280 283 280 280 278 284 285 287 282 279 278 277 278 280 279 281 284 284 282 281 277 278 281 283 285 280 281 281 287 287
295 296 296 297 298 298 297 293 295 289 282 281 284 285 281 280 280 278 279 283 283 281 281 280 276 276 277 274 276 284 283 282 279 280 278 278 282 281 282 283 282 283 284 284
294 295 296 296 297 298 297 290 296 294 286 285 287 286 286 286 286 282 275 280 280 284 279 277 274 272 266 266 270 277 279 284 282 284 283 282 281 282 283 285 284 284 284 284
294 294 295 296 296 297 296 291 294 292 284 285 285 283 287 288 287 289 281 278 283 282 282 277 274 272 274 267 268 271 276 276 280 282 279 279 283 284 284 285 285 284 283 283
294 294 294 295 296 297 296 291 293 290 285 280 278 284 284 287 288 287 287 284 283 282 282 277 274 271 277 270 274 273 277 277 272 272 276 277 279 281 284 284 283 282 282 282
293 294 294 294 295 296 294 293 293 293 286 278 274 278 283 284 286 286 286 285 282 277 277 275 277 277 276 273 275 271 277 277 277 277 281 283 284 284 283 282 282 282 282 281
293 294 294 294 294 295 290 283 291 294 292 282 276 279 276 281 283 284 283 283 279 279 278 273 274 279 276 267 267 277 279 280 281 280 284 282 285 286 282 282 282 282 282 281
293 293 293 293 294 290 285 282 286 295 292 281 276 275 277 280 281 279 281 279 275 277 272 271 275 276 276 268 266 277 279 280 280 282 281 280 281 283 282 282 281 277 275 275
292 292 292 292 293 292 287 289 292 293 286 283 275 273 277 281 275 276 279 278 279 278 276 271 274 274 272 273 278 279 279 279 279 281 279 281 280 279 278 276 274 272 272 271
292 292 292 287 286 283 285 293 295 291 284 277 275 271 271 281 280 280 279 282 277 280 278 274 276 271 274 277 278 279 277 278 278 275 272 272 276 277 274 271 268 271 270 267
291 286 278 276 282 292 292 287 283 281 281 274 272 273 271 280 276 276 273 276 276 273 276 277 276 273 280 279 277 278 278 277 276 272 270 267 268 272 271 271 268 269 268 265
282 280 277 276 291 286 282 277 277 276 273 272 265 270 274 280 275 272 276 270 275 271 272 274 273 270 279 281 273 276 277 277 277 278 279 278 274 273 268 263 262 262 261 259
282 281 284 285 277 277 274 272 272 271 267 265 270 270 271 276 278 273 274 267 271 268 275 273 269 274 280 275 276 275 274 274 272 265 271 266 266 267 268 261 257 255 254 253
283 276 275 274 272 270 268 266 266 268 268 266 265 266 271 272 274 273 273 271 269 272 271 270 270 274 267 265 263 264 260 268 263 257 258 257 255 254 255 254 251 252 251 247
278 273 269 270 264 269 269 263 265 265 267 269 275 270 268 264 268 271 269 269 269 268 266 265 265 267 268 265 265 267 264 261 263 258 255 254 254 251 250 252 251 251 250 247
274 272 267 265 260 255 254 255 261 261 268 271 266 270 272 272 267 269 266 264 261 262 263 267 266 259 258 258 256 255 257 256 254 252 253 252 251 251 248 244 246 247 247 246
263 261 262 254 256 258 259 260 258 256 262 266 266 264 261 259 261 258 259 262 262 265 264 256 250 251 250 250 250 251 252 252 250 250 250 250 249 250 248 243 242 243 245 246
257 248 245 246 249 250 246 248 252 258 260 260 260 261 262 263 257 255 257 261 264 261 250 247 246 246 246 246 247 247 249 249 248 248 249 247 245 245 247 248 243 241 242 242

GFSNW_sfc_thetae_078.txt.gz
Theta_e
304 304 304 302 300 302 298 292 287 297 303 293 291 292 294 296 296 298 296 293 290 289 289 288 288 288 292 295 294 290 292 289 285 287 290 291 289 289 290 286 282 283 283 286
302 304 304 303 301 301 296 287 289 298 300 285 285 290 294 296 295 295 295 293 293 291 289 286 289 290 293 293 293 291 292 289 283 284 288 289 288 289 289 288 288 283 285 287
301 302 303 304 302 301 297 288 284 289 290 287 288 287 291 292 297 296 297 295 296 291 288 291 288 289 292 293 294 296 295 288 288 284 287 290 286 287 287 289 285 285 285 287
300 301 303 304 303 302 297 288 284 286 285 286 286 290 289 291 291 296 297 294 294 292 288 289 287 291 292 294 295 293 293 287 287 288 288 289 289 288 287 287 290 286 289 288
298 300 302 303 304 301 294 286 284 286 284 286 287 287 286 288 293 294 293 293 295 295 291 291 289 291 292 291 293 292 292 287 288 286 288 288 286 289 288 289 290 289 288 289
297 298 300 302 304 300 291 289 290 288 284 284 286 287 288 289 291 293 296 296 295 294 293 296 296 297 297 296 292 290 290 287 286 284 287 288 284 287 288 290 292 290 286 291
297 298 298 300 302 300 294 292 291 286 280 282 285 287 290 290 290 288 292 295 293 294 298 298 297 295 295 296 295 296 290 288 287 283 284 279 289 292 292 290 291 292 293 293
296 296 298 299 301 303 296 293 290 286 280 283 283 284 287 288 291 287 290 290 289 296 293 287 286 286 287 287 288 293 294 291 284 283 283 287 289 287 289 288 289 293 293 293
296 296 297 298 299 301 296 294 293 289 284 282 286 284 286 285 285 284 285 287 288 292 289 285 283 280 285 282 285 289 293 293 289 284 283 280 290 289 293 294 286 294 294 292
295 296 297 297 298 299 298 294 294 290 284 285 286 284 284 286 286 285 284 285 285 288 286 283 282 282 282 282 283 283 286 287 285 284 284 286 288 288 291 285 289 291 295 293
294 295 296 297 297 298 296 293 296 291 286 286 286 288 285 285 286 284 283 286 284 284 285 284 282 281 281 283 284 285 286 285 284 284 283 282 286 287 288 290 286 289 291 291
294 294 295 296 297 298 297 288 296 295 287 287 289 289 289 289 290 287 282 285 284 288 285 282 280 278 277 279 281 281 284 288 285 287 288 286 287 287 288 289 289 288 290 290
294 294 295 295 296 297 296 291 294 291 285 286 287 287 291 290 290 292 287 284 286 285 287 283 281 280 279 279 280 281 282 282 286 286 285 285 286 287 288 289 289 289 290 289
293 294 294 294 295 296 297 291 294 290 287 282 283 287 287 290 291 291 291 287 285 285 286 283 282 284 281 279 280 282 283 283 281 281 280 283 286 286 288 287 287 287 288 288
293 293 294 294 295 296 296 294 293 294 287 281 281 283 286 287 289 289 288 288 286 285 284 284 283 281 280 278 278 279 281 282 283 285 285 288 287 288 288 286 286 286 285 284
293 293 293 294 295 295 292 284 292 294 293 284 278 283 281 284 286 287 287 287 286 285 285 282 282 281 281 280 279 282 283 284 286 285 287 286 289 289 287 286 285 285 285 285
292 293 293 294 294 292 286 284 288 294 293 284 279 279 281 283 283 283 284 284 284 286 282 281 281 280 282 278 278 282 282 284 283 285 285 284 286 284 285 285 284 281 279 280
292 293 293 294 294 292 287 291 292 295 286 284 277 276 278 283 281 281 283 282 284 282 283 279 280 279 279 277 281 283 282 282 282 283 280 284 284 282 281 280 279 278 277 275
292 293 293 290 286 283 285 293 294 293 286 279 277 274 273 282 282 282 282 283 279 282 280 279 280 276 276 281 281 282 280 281 282 278 276 277 282 281 279 278 276 277 275 273
292 288 283 278 283 291 292 287 283 283 281 280 276 277 276 281 281 279 280 282 278 275 279 280 278 278 282 283 281 283 282 282 279 276 275 274 275 278 276 277 278 279 276 272
285 281 277 281 290 286 282 277 278 278 275 276 274 277 276 282 278 279 279 277 278 273 276 277 276 276 281 284 278 280 281 280 280 284 284 283 281 280 277 272 273 273 271 269
283 283 283 285 280 278 274 274 274 274 272 272 275 274 279 278 282 279 277 275 275 271 277 275 272 277 282 280 279 279 279 279 279 278 281 281 279 279 278 275 270 268 265 261
284 279 278 276 273 270 270 267 268 269 270 271 273 273 276 278 278 276 276 272 272 276 274 272 275 276 274 274 268 272 270 277 279 274 267 270 267 265 270 266 262 260 258 256
278 273 269 270 268 266 271 268 269 273 273 270 276 272 276 273 273 273 271 271 272 269 268 269 276 272 263 263 265 266 272 276 276 275 268 265 262 259 257 259 258 257 255 252
276 274 267 265 265 261 260 261 264 266 266 275 272 273 275 270 270 272 267 266 266 268 270 273 273 260 256 259 259 259 260 260 260 259 258 256 256 256 253 253 254 255 253 252
268 265 264 260 264 260 258 260 264 261 268 271 272 269 267 269 267 265 266 266 264 270 271 270 258 257 255 254 253 254 255 257 256 257 257 255 254 255 252 250 251 252 253 252
262 254 249 251 255 259 254 254 259 260 269 270 267 265 265 266 261 261 263 266 272 271 260 253 251 251 252 250 250 251 252 253 253 252 253 252 251 251 252 252 249 251 251 251